Waarnemingen

Advertentie
Mijn weer
Capo Palinuro, Italië (16310): temperatuur & dauwpunt: 15.10.2017 08:00:00 - 21.10.2017 08:00:00 (CEST)Capo Palinuro, Italië (16310): windsnelheid: 15.10.2017 08:00:00 - 21.10.2017 08:00:00 (CEST)Capo Palinuro, Italië (16310): windrichting: 15.10.2017 08:00:00 - 21.10.2017 08:00:00 (CEST)Capo Palinuro, Italië (16310): luchtdruk: 15.10.2017 08:00:00 - 21.10.2017 08:00:00 (CEST)Capo Palinuro, Italië (16310): zicht: 15.10.2017 08:00:00 - 21.10.2017 08:00:00 (CEST)Capo Palinuro, Italië (16310): Zonneschijnduur: 15.10.2017 08:00:00 - 21.10.2017 08:00:00 (CEST)
Datum & Tijd tt [°C] td [°C] ff [km/u] ff [kn] dd ppp [hPa] vv [km] sd [min]
21.10.2017 08:00:00 18,8 12,6 9 5 N 1019,8 20 -
21.10.2017 07:00:00 19,0 13,0 4 2 WNW 1019,7 20 -
21.10.2017 06:00:00 19,0 13,0 5 3 WNW 1019,7 20 -
21.10.2017 05:00:00 19,2 13,2 8 4 W 1019,7 20 -
21.10.2017 04:00:00 19,2 13,2 5 3 NW 1019,7 20 -
21.10.2017 03:00:00 19,6 15,0 8 4 W 1019,6 20 -
21.10.2017 02:00:00 19,6 15,0 4 2 NW 1019,7 20 -
21.10.2017 01:00:00 19,4 13,6 4 2 WNW 1019,6 20 -
21.10.2017 00:00:00 20,0 13,5 8 4 WNW 1019,6 20 -
20.10.2017 23:00:00 20,2 13,7 5 3 W 1019,6 20 -
20.10.2017 22:00:00 20,2 12,7 11 6 WNW 1019,1 20 -
20.10.2017 21:00:00 20,0 12,5 8 4 WZW 1018,9 20 -
20.10.2017 20:00:00 20,2 17,0 11 6 ZZW 1018,8 20 -
20.10.2017 19:00:00 20,4 18,0 9 5 WNW 1018,7 20 -
20.10.2017 18:00:00 21,4 18,2 11 6 N 1018,6 20 48
20.10.2017 17:00:00 22,4 17,1 13 7 ZW 1018,4 20 60
20.10.2017 16:00:00 22,8 15,9 11 6 N 1018,4 20 60
20.10.2017 15:00:00 23,6 15,4 13 7 Z 1018,4 20 60
20.10.2017 14:00:00 23,4 -30,0 13 7 WZW 1018,4 20 60
20.10.2017 13:00:00 23,6 15,1 11 6 ZZO 1018,5 20 60
20.10.2017 12:00:00 22,8 14,1 9 5 ZZW 1018,4 18 60
20.10.2017 11:00:00 22,2 10,4 11 6 N 1018,1 18 60
20.10.2017 10:00:00 22,0 11,7 5 3 Z 1017,8 15 60
20.10.2017 09:00:00 20,0 12,5 8 4 NNO 1017,7 15 60
20.10.2017 08:00:00 19,0 13,4 8 4 ONO 1017,7 15 18
20.10.2017 07:00:00 18,4 13,3 8 4 NNO 1017,7 15 -
20.10.2017 06:00:00 18,0 13,5 5 3 NO 1017,8 15 -
20.10.2017 05:00:00 18,2 14,7 8 4 NNO 1017,7 15 -
20.10.2017 04:00:00 18,2 14,3 5 3 NNO 1017,7 15 -
20.10.2017 03:00:00 19,0 16,6 8 4 NO 1017,7 15 -
20.10.2017 02:00:00 18,8 16,2 5 3 NNO 1017,7 15 -
20.10.2017 01:00:00 18,8 15,3 9 5 NO 1017,8 15 -
20.10.2017 00:00:00 19,0 15,9 9 5 NNO 1017,8 15 -
19.10.2017 23:00:00 19,2 16,4 8 4 NW 1017,8 15 -
19.10.2017 22:00:00 19,4 16,8 5 3 N 1017,8 15 -
19.10.2017 21:00:00 19,4 17,2 9 5 NNO 1017,8 15 -
19.10.2017 20:00:00 20,0 17,8 8 4 NNO 1017,6 20 -
19.10.2017 19:00:00 20,0 17,8 9 5 NNW 1017,7 20 18
19.10.2017 18:00:00 20,4 18,0 5 3 NNW 1017,8 20 60
19.10.2017 17:00:00 22,0 18,4 5 3 NNW 1017,8 20 60
19.10.2017 16:00:00 22,8 18,8 5 3 N 1018,0 20 60
19.10.2017 15:00:00 23,2 18,5 8 4 WZW 1018,2 20 60
19.10.2017 14:00:00 23,0 17,2 8 4 ZZW 1018,4 20 60
19.10.2017 13:00:00 23,2 17,0 5 3 ZZW 1018,5 20 60
19.10.2017 12:00:00 23,0 17,9 4 2 NNO 1018,4 20 60
19.10.2017 11:00:00 22,2 16,9 5 3 Z 1018,5 20 60
19.10.2017 10:00:00 20,0 16,0 5 3 ZW 1018,6 20 60
19.10.2017 09:00:00 18,8 16,0 0 0 N 1018,5 20 24
19.10.2017 08:00:00 18,8 16,2 5 3 NW 1018,6 20 0
19.10.2017 07:00:00 19,2 16,6 8 4 WNW 1018,6 15 -
19.10.2017 06:00:00 19,2 16,4 4 2 ZW 1018,6 15 -
19.10.2017 05:00:00 19,2 16,4 5 3 WZW 1018,7 15 -
19.10.2017 04:00:00 19,0 16,2 0 0 N 1018,8 20 -
19.10.2017 03:00:00 19,0 16,2 0 0 N 1019,0 20 -
19.10.2017 02:00:00 19,0 16,2 0 0 N 1019,1 20 -
19.10.2017 01:00:00 19,0 16,4 0 0 N 1019,1 20 -
19.10.2017 00:00:00 19,0 16,4 0 0 N 1019,1 20 -
18.10.2017 23:00:00 19,0 16,4 0 0 N 1019,1 20 -
18.10.2017 22:00:00 19,0 16,4 0 0 N 1019,1 20 -
18.10.2017 21:00:00 19,8 17,6 0 0 N 1019,1 20 -
18.10.2017 20:00:00 20,0 17,6 0 0 N 1019,1 20 -
18.10.2017 19:00:00 20,0 17,6 0 0 N 1019,1 20 -
18.10.2017 18:00:00 22,0 18,4 0 0 N 1019,6 20 42
18.10.2017 17:00:00 22,6 18,0 5 3 WNW 1019,7 20 60
18.10.2017 16:00:00 22,6 17,5 8 4 W 1020,0 20 60
18.10.2017 15:00:00 22,4 18,8 8 4 NW 1020,5 20 60
18.10.2017 14:00:00 22,8 18,4 8 4 W 1021,2 20 48
18.10.2017 13:00:00 23,2 18,1 9 5 WNW 1021,5 20 54
18.10.2017 12:00:00 22,0 17,0 8 4 NW 1021,6 20 60
18.10.2017 11:00:00 20,4 16,4 5 3 NNW 1021,7 20 54
18.10.2017 10:00:00 19,0 15,7 11 6 WNW 1021,8 20 24
18.10.2017 09:00:00 19,0 16,0 9 5 WNW 1021,8 20 60
18.10.2017 08:00:00 18,8 15,9 9 5 WNW 1021,8 20 36
18.10.2017 07:00:00 19,0 15,9 9 5 WNW 1022,0 20 -
18.10.2017 06:00:00 19,0 15,9 0 0 N 1023,0 20 -
18.10.2017 05:00:00 19,6 16,1 0 0 N 1023,6 20 -
18.10.2017 04:00:00 20,0 17,2 9 5 WNW 1023,8 20 -
18.10.2017 03:00:00 20,0 16,7 9 5 WNW 1023,8 20 -
18.10.2017 02:00:00 20,0 17,0 0 0 N 1023,8 20 -
18.10.2017 01:00:00 20,0 17,0 8 4 WNW 1023,8 20 -
18.10.2017 00:00:00 20,0 16,8 0 0 N 1023,8 20 -
17.10.2017 23:00:00 19,8 16,7 0 0 N 1023,8 20 -
17.10.2017 22:00:00 20,0 17,2 8 4 WNW 1023,8 20 -
17.10.2017 21:00:00 20,0 17,6 0 0 N 1023,8 20 -
17.10.2017 20:00:00 20,2 17,6 9 5 WNW 1023,7 20 -
17.10.2017 19:00:00 20,4 18,0 0 0 N 1023,8 20 -
17.10.2017 18:00:00 22,0 19,4 0 0 N 1024,1 20 12
17.10.2017 17:00:00 22,8 19,2 0 0 N 1024,5 20 60
17.10.2017 16:00:00 23,0 19,4 0 0 N 1024,8 20 60
17.10.2017 15:00:00 23,0 19,4 0 0 N 1025,2 20 60
17.10.2017 14:00:00 23,0 19,4 0 0 N 1025,6 20 60
17.10.2017 13:00:00 23,0 19,4 0 0 N 1026,4 20 60
17.10.2017 12:00:00 23,0 18,8 8 4 NNO 1026,5 20 60
17.10.2017 11:00:00 22,0 18,0 0 0 N 1026,6 20 60
17.10.2017 10:00:00 20,6 17,4 9 5 NNO 1026,4 20 60
17.10.2017 09:00:00 19,6 16,6 8 4 ONO 1026,4 20 60
17.10.2017 08:00:00 18,8 15,9 5 3 ZZW 1026,5 20 60
17.10.2017 07:00:00 18,8 15,9 0 0 N 1026,3 20 -
17.10.2017 06:00:00 18,8 15,7 9 5 NNO 1026,3 20 -
17.10.2017 05:00:00 18,8 15,7 11 6 NNO 1026,4 20 -
17.10.2017 04:00:00 19,0 16,0 8 4 ZZW 1026,5 20 -
17.10.2017 03:00:00 19,0 15,9 9 5 ZZO 1026,8 20 -
17.10.2017 02:00:00 19,6 16,6 13 7 WZW 1027,0 20 -
17.10.2017 01:00:00 19,6 16,4 15 8 NNO 1027,0 20 -
17.10.2017 00:00:00 19,8 16,7 11 6 WNW 1026,9 20 -
16.10.2017 23:00:00 19,8 16,8 11 6 WNW 1026,9 20 -
16.10.2017 22:00:00 20,0 17,0 8 4 ZZW 1026,9 20 -
16.10.2017 21:00:00 20,0 16,4 5 3 N 1026,9 20 -
16.10.2017 20:00:00 21,0 18,6 8 4 NNO 1026,8 20 -
16.10.2017 19:00:00 21,0 18,9 9 5 NNO 1027,1 20 -
16.10.2017 18:00:00 22,0 19,4 8 4 ONO 1027,1 20 60
16.10.2017 17:00:00 22,4 20,0 5 3 O 1027,0 20 60
16.10.2017 16:00:00 23,4 20,2 5 3 O 1027,7 20 60
16.10.2017 15:00:00 23,0 19,4 4 2 NO 1027,6 20 60
16.10.2017 14:00:00 23,0 18,8 8 4 NO 1027,6 20 60
16.10.2017 13:00:00 23,4 19,1 9 5 ONO 1027,6 20 60
16.10.2017 12:00:00 23,0 18,8 11 6 O 1026,3 20 60
16.10.2017 11:00:00 21,6 17,4 8 4 ONO 1026,4 20 60
16.10.2017 10:00:00 20,0 16,4 5 3 ONO 1026,3 20 60
16.10.2017 09:00:00 14,0 10,6 8 4 ONO 1026,6 20 60
16.10.2017 08:00:00 13,6 10,6 5 3 O 1026,5 20 -
16.10.2017 07:00:00 14,0 11,2 5 3 O 1026,8 20 -
16.10.2017 06:00:00 14,0 11,2 5 3 O 1026,9 20 -
16.10.2017 05:00:00 14,0 11,0 5 3 NO 1027,1 20 -
16.10.2017 04:00:00 14,0 11,0 4 2 ZZO 1027,1 20 -
16.10.2017 03:00:00 14,0 11,2 4 2 OZO 1027,1 20 -
16.10.2017 02:00:00 14,0 11,2 5 3 ONO 1027,2 20 -
16.10.2017 01:00:00 14,0 11,4 4 2 O 1027,3 20 -
16.10.2017 00:00:00 20,0 17,4 5 3 O 1026,8 20 -
15.10.2017 23:00:00 20,2 17,6 9 5 O 1026,8 20 -
15.10.2017 22:00:00 20,6 18,2 9 5 WNW 1026,4 20 -
15.10.2017 21:00:00 20,8 18,4 11 6 ZW 1026,3 20 -
15.10.2017 20:00:00 20,8 18,6 11 6 O 1026,2 20 -
15.10.2017 19:00:00 21,0 18,4 9 5 ZZW 1026,1 20 12
15.10.2017 18:00:00 21,4 19,0 11 6 ZO 1026,1 20 60
15.10.2017 17:00:00 22,4 19,0 13 7 ZO 1026,1 20 60
15.10.2017 16:00:00 22,4 18,0 11 6 ZW 1026,2 20 60
15.10.2017 15:00:00 22,6 17,5 11 6 ZZO 1026,5 20 60
15.10.2017 14:00:00 23,4 18,7 21 11 ZW 1026,5 20 60
15.10.2017 13:00:00 22,8 17,9 13 7 ZZO 1026,8 20 60
15.10.2017 12:00:00 22,6 17,5 16 9 ZO 1026,4 20 60
15.10.2017 11:00:00 21,8 16,7 15 8 ZZO 1026,4 20 60
15.10.2017 10:00:00 21,0 17,0 8 4 OZO 1026,2 20 60
15.10.2017 09:00:00 20,0 16,4 9 5 NNO 1025,7 20 60
15.10.2017 08:00:00 19,0 16,4 9 5 NNO 1025,8 20 48

tt = temperatuur
td = dauwpunt
ff = windsnelheid
dd = windrichting
ppp = luchtdruk
vv = zicht
sd = Zonneschijnduur

Weerstations in de omgeving